Location: Caltech
(34.1382°N, 118.1253°W)
Time: 15:48:33
(UTC-07:00)

RS-15 - Visible Passes

Search period start: 25 October 2014 00:00
Search period end: 03 November 2014 23:00
Orbit: 1899 x 2146 km, 64.8° (Epoch: 21 October)

Date Brightness Start Highest point End Pass type
(mag) Time Alt. Az. Time Alt. Az. Time Alt. Az.
25 Oct 9.8 01:24:59 14° N 01:24:59 14° N 01:27:05 10° N visible
25 Oct 9.9 03:37:25 10° N 03:38:56 10° N 03:40:27 10° NNE visible
25 Oct 9.6 05:48:11 10° NNW 05:57:13 27° NE 06:06:28 10° E visible
26 Oct 9.9 00:50:11 13° N 00:50:11 13° N 00:51:21 10° NNE visible
26 Oct 9.9 03:00:27 10° N 03:01:22 10° N 03:02:17 10° N visible
26 Oct 9.7 05:12:27 10° NNW 05:20:24 21° NE 05:28:30 10° E visible
26 Oct 9.6 21:42:02 10° SSW 21:42:51 13° SSW 21:42:51 13° SSW visible
27 Oct 10.0 00:15:24 11° NNE 00:15:24 11° NNE 00:15:35 10° NNE visible
27 Oct 9.9 02:23:09 11° NNW 02:23:51 11° N 02:26:22 10° N visible
27 Oct 9.8 04:36:44 10° N 04:43:23 17° NNE 04:50:09 10° ENE visible
27 Oct 9.3 21:06:35 10° S 21:09:09 19° S 21:09:09 19° S visible
28 Oct 9.9 01:48:22 12° N 01:48:22 12° N 01:50:38 10° N visible
28 Oct 9.8 04:01:01 10° N 04:06:11 14° NNE 04:11:25 10° NE visible
28 Oct 9.0 06:11:54 10° NNW 06:22:32 46° NE 06:33:32 10° ESE visible
28 Oct 9.0 20:31:32 10° S 20:35:30 23° SSE 20:35:30 23° SSE visible
28 Oct 9.8 22:42:44 10° SW 22:43:21 12° SW 22:43:21 12° SW visible
29 Oct 9.9 01:13:36 12° N 01:13:36 12° N 01:14:56 10° N visible
29 Oct 9.9 03:25:18 10° N 03:28:49 12° NNE 03:32:21 10° NE visible
29 Oct 9.3 05:36:05 10° NNW 05:46:06 36° NE 05:56:24 10° ESE visible
29 Oct 8.9 19:57:01 10° SSE 20:01:55 23° SE 20:01:55 23° SE visible
29 Oct 9.2 22:06:12 10° SW 22:09:47 24° SW 22:09:47 24° SW visible
30 Oct 10.0 00:38:50 11° N 00:38:50 11° N 00:39:13 10° N visible
30 Oct 9.9 02:49:32 10° N 02:51:19 10° N 02:53:07 10° NNE visible
30 Oct 9.5 05:00:19 10° NNW 05:09:29 28° NE 05:18:54 10° E visible
30 Oct 8.9 19:23:16 10° SE 19:28:24 18° ESE 19:28:24 18° ESE visible
30 Oct 8.5 21:30:00 10° SSW 21:36:16 41° SSW 21:36:16 41° SSW visible
31 Oct 9.9 02:12:56 10° N 02:13:46 10° N 02:14:36 10° N visible
31 Oct 9.7 04:24:34 10° NNW 04:32:42 22° NE 04:41:00 10° E visible
31 Oct 8.3 06:35:51 10° NNW 06:47:08 78° ENE 06:58:56 10° SSE visible
31 Oct 9.1 18:51:20 10° ESE 18:54:45 12° E 18:54:56 12° E visible
31 Oct 8.0 20:54:09 10° SSW 21:02:48 59° S 21:02:48 59° S visible
31 Oct 9.8 23:09:13 10° WSW 23:10:40 14° W 23:10:40 14° W visible
01 Nov 9.9 01:37:09 11° N 01:37:09 11° N 01:38:30 10° N visible
01 Nov 9.8 03:48:50 10° N 03:55:43 18° NNE 04:02:42 10° ENE visible
01 Nov 8.5 05:59:54 10° NNW 06:11:01 61° ENE 06:22:33 10° SE visible
01 Nov 7.8 20:18:39 10° S 20:29:17 56° ESE 20:29:22 56° ESE visible
01 Nov 9.2 22:31:56 10° WSW 22:37:15 28° W 22:37:15 28° W visible
02 Nov 10.0 01:02:30 10° N 01:02:30 10° N 01:02:46 10° N visible
02 Nov 9.9 02:13:08 10° N 02:18:33 14° NNE 02:24:01 10° NE visible
02 Nov 8.8 04:24:02 10° NNW 04:34:45 47° NE 04:45:51 10° SE visible
02 Nov 8.1 18:43:32 10° S 18:53:32 41° ESE 18:55:58 37° E visible
02 Nov 8.5 20:55:00 10° SW 21:03:50 47° WNW 21:03:50 47° WNW visible
03 Nov 9.9 01:37:25 10° N 01:41:12 12° NNE 01:45:01 10° NE visible
03 Nov 9.1 03:48:13 10° NNW 03:58:20 37° NE 04:08:46 10° ESE visible
03 Nov 8.5 18:08:56 10° SSE 18:17:53 30° ESE 18:22:34 22° ENE visible
03 Nov 8.0 20:18:26 10° SW 20:29:20 65° WNW 20:30:26 62° NNW visible
03 Nov 9.9 22:37:27 10° WNW 22:38:19 12° WNW 22:38:19 12° WNW visible
